Change the Weather History Date:

Monday, January 14, 2013

  Actual Average (KFLO) Record (KFLO)
Temperature  
Mean Temperature 67 °F 45 °F  
Max Temperature 77 °F 55 °F 79 °F (2013)
Min Temperature 57 °F 34 °F 16 °F (2011)
Degree Days  
Heating Degree Days 0 20  
Month to date heating degree days 287  
Since 1 July heating degree days 1266  
Cooling Degree Days 2 0  
Month to date cooling degree days 0  
Year to date cooling degree days 0  
Growing Degree Days 17 (Base 50)    
Moisture  
Dew Point 58 °F    
Average Humidity 73    
Maximum Humidity 88    
Minimum Humidity 57    
Precipitation  
Precipitation 0.00 in 0.11 in 1.61 in (1995)
Month to date precipitation 1.49  
Year to date precipitation 1.49  
Sea Level Pressure  
Sea Level Pressure 30.14 in    
Wind  
Wind Speed 8 mph (South)    
Max Wind Speed 16 mph    
Max Gust Speed 20 mph    
Visibility 10 miles    
Events      
T = Trace of Precipitation, MM = Missing Value Source: NWS Daily Summary

Daily Weather History Graph

Daily Weather History Graph

Search for Another Location

Airport or City:

Trip Planner

Search our weather history database for the weather conditions in past years. The results will help you decide how hot, cold, wet, or windy it might be!

Date:

Astronomy

Jan. 14, 2013 Rise Set
Actual Time 7:25 AM EST 5:31 PM EST
Civil Twilight 6:58 AM EST 5:59 PM EST
Nautical Twilight 6:27 AM EST 6:30 PM EST
Astronomical Twilight 5:57 AM EST 7:00 PM EST
Moon 9:08 AM EST (1/14) 9:04 PM EST (1/14)
Length of Visible Light 11h 00m
Length of Day
10h 05m
Waxing Crescent, 11% of the Moon is Illuminated
Jan 14
Waxing Crescent
Jan 18
First Quarter
Jan 26
Full
Feb 3
Last Quarter
Feb 10
New

Hourly Weather History & Observations

Time (EST) Temp. Dew Point Humidity Pressure Visibility Wind Dir Wind Speed Gust Speed Precip Events Conditions
12:15 AM 64.4 °F 55.4 °F 73% 30.13 in 10.0 mi South 9.2 mph - N/A   Clear
12:35 AM 64.4 °F 55.4 °F 73% 30.12 in 10.0 mi South 11.5 mph - N/A   Clear
12:55 AM 64.4 °F 55.4 °F 73% 30.11 in 10.0 mi South 11.5 mph - N/A   Clear
1:15 AM 64.4 °F 55.4 °F 73% 30.12 in 10.0 mi SSW 6.9 mph - N/A   Clear
1:35 AM 62.6 °F 53.6 °F 72% 30.14 in 10.0 mi SW 6.9 mph - N/A   Clear
1:55 AM 60.8 °F 53.6 °F 77% 30.14 in 10.0 mi SSW 4.6 mph - N/A   Clear
2:15 AM 60.8 °F 53.6 °F 77% 30.14 in 10.0 mi SSW 5.8 mph - N/A   Clear
2:35 AM 60.8 °F 53.6 °F 77% 30.14 in 10.0 mi South 5.8 mph - N/A   Clear
2:55 AM 60.8 °F 53.6 °F 77% 30.14 in 10.0 mi SSW 5.8 mph - N/A   Clear
3:15 AM 59.0 °F 53.6 °F 82% 30.14 in 10.0 mi SSW 5.8 mph - N/A   Clear
3:35 AM 59.0 °F 53.6 °F 82% 30.14 in 10.0 mi South 5.8 mph - N/A   Clear
3:55 AM 59.0 °F 53.6 °F 82% 30.14 in 10.0 mi South 5.8 mph - N/A   Clear
4:35 AM 57.2 °F 53.6 °F 88% 30.13 in 10.0 mi South 4.6 mph - N/A   Clear
4:55 AM 57.2 °F 53.6 °F 88% 30.13 in 10.0 mi South 3.5 mph - N/A   Clear
5:15 AM 57.2 °F 53.6 °F 88% 30.12 in 10.0 mi South 3.5 mph - N/A   Clear
5:35 AM 57.2 °F 53.6 °F 88% 30.12 in 10.0 mi South 5.8 mph - N/A   Partly Cloudy
5:55 AM 57.2 °F 53.6 °F 88% 30.13 in 10.0 mi Calm Calm - N/A   Scattered Clouds
6:15 AM 57.2 °F 53.6 °F 88% 30.13 in 10.0 mi South 3.5 mph - N/A   Clear
6:35 AM 57.2 °F 53.6 °F 88% 30.14 in 9.0 mi South 5.8 mph - N/A   Clear
6:55 AM 59.0 °F 53.6 °F 82% 30.14 in 8.0 mi SSW 4.6 mph - N/A   Clear
7:15 AM 57.2 °F 53.6 °F 88% 30.15 in 5.0 mi SSW 3.5 mph - N/A   Clear
7:35 AM 57.2 °F 53.6 °F 88% 30.15 in 1.5 mi South 3.5 mph - N/A   Clear
7:55 AM 59.0 °F 55.4 °F 88% 30.16 in 5.0 mi South 4.6 mph - N/A   Scattered Clouds
8:15 AM 60.8 °F 57.2 °F 88% 30.16 in 10.0 mi South 6.9 mph - N/A   Mostly Cloudy
8:35 AM 62.6 °F 57.2 °F 82% 30.16 in 10.0 mi South 8.1 mph - N/A   Mostly Cloudy
8:55 AM 62.6 °F 57.2 °F 82% 30.18 in 10.0 mi SSW 9.2 mph - N/A   Scattered Clouds
9:15 AM 64.4 °F 59.0 °F 83% 30.19 in 10.0 mi SSW 5.8 mph - N/A   Partly Cloudy
9:35 AM 64.4 °F 59.0 °F 83% 30.19 in 10.0 mi SSW 6.9 mph - N/A   Mostly Cloudy
9:55 AM 68.0 °F 60.8 °F 78% 30.18 in 10.0 mi SSW 9.2 mph - N/A   Mostly Cloudy
10:15 AM 69.8 °F 60.8 °F 73% 30.18 in 10.0 mi SSW 9.2 mph - N/A   Mostly Cloudy
10:35 AM 69.8 °F 60.8 °F 73% 30.18 in 10.0 mi SW 6.9 mph - N/A   Partly Cloudy
10:55 AM 69.8 °F 60.8 °F 73% 30.17 in 10.0 mi SW 6.9 mph - N/A   Clear
11:15 AM 69.8 °F 60.8 °F 73% 30.16 in 10.0 mi SSW 9.2 mph - N/A   Partly Cloudy
11:35 AM 71.6 °F 60.8 °F 69% 30.15 in 10.0 mi SSW 9.2 mph - N/A   Scattered Clouds
11:55 AM 73.4 °F 60.8 °F 65% 30.14 in 10.0 mi SW 10.4 mph - N/A   Partly Cloudy
12:15 PM 75.2 °F 62.6 °F 65% 30.13 in 10.0 mi SW 12.7 mph 17.3 mph N/A   Clear
12:35 PM 75.2 °F 60.8 °F 61% 30.12 in 10.0 mi SW 15.0 mph 18.4 mph N/A   Partly Cloudy
12:55 PM 75.2 °F 60.8 °F 61% 30.11 in 10.0 mi SSW 10.4 mph 19.6 mph N/A   Mostly Cloudy
1:15 PM 75.2 °F 60.8 °F 61% 30.11 in 10.0 mi SSW 10.4 mph 16.1 mph N/A   Overcast
1:35 PM 75.2 °F 60.8 °F 61% 30.10 in 10.0 mi SSW 13.8 mph 18.4 mph N/A   Overcast
1:55 PM 75.2 °F 60.8 °F 61% 30.10 in 10.0 mi South 11.5 mph - N/A   Overcast
2:15 PM 75.2 °F 60.8 °F 61% 30.10 in 10.0 mi South 13.8 mph 17.3 mph N/A   Overcast
2:35 PM 75.2 °F 60.8 °F 61% 30.10 in 10.0 mi South 8.1 mph - N/A   Mostly Cloudy
2:55 PM 75.2 °F 60.8 °F 61% 30.10 in 10.0 mi South 15.0 mph 18.4 mph N/A   Mostly Cloudy
3:15 PM 75.2 °F 60.8 °F 61% 30.10 in 10.0 mi SSW 13.8 mph 17.3 mph N/A   Mostly Cloudy
3:35 PM 75.2 °F 60.8 °F 61% 30.11 in 10.0 mi South 16.1 mph 19.6 mph N/A   Partly Cloudy
3:55 PM 77.0 °F 60.8 °F 57% 30.11 in 10.0 mi South 13.8 mph 18.4 mph N/A   Clear
4:15 PM 75.2 °F 60.8 °F 61% 30.12 in 10.0 mi South 10.4 mph - N/A   Partly Cloudy
4:35 PM 75.2 °F 60.8 °F 61% 30.12 in 10.0 mi South 10.4 mph 19.6 mph N/A   Partly Cloudy
4:55 PM 75.2 °F 60.8 °F 61% 30.13 in 10.0 mi South 9.2 mph - N/A   Clear
5:15 PM 73.4 °F 59.0 °F 61% 30.13 in 10.0 mi South 8.1 mph - N/A   Clear
5:35 PM 71.6 °F 59.0 °F 64% 30.14 in 10.0 mi South 5.8 mph - N/A   Clear
5:55 PM 71.6 °F 57.2 °F 60% 30.13 in 10.0 mi South 6.9 mph - N/A   Clear
6:15 PM 71.6 °F 59.0 °F 64% 30.14 in 10.0 mi South 8.1 mph - N/A   Clear
6:35 PM 69.8 °F 59.0 °F 68% 30.14 in 10.0 mi South 5.8 mph - N/A   Clear
6:55 PM 69.8 °F 57.2 °F 64% 30.14 in 10.0 mi SSE 5.8 mph - N/A   Clear
7:15 PM 68.0 °F 59.0 °F 73% 30.14 in 10.0 mi SSE 5.8 mph - N/A   Clear
7:35 PM 68.0 °F 59.0 °F 73% 30.15 in 10.0 mi South 5.8 mph - N/A   Clear
7:55 PM 68.0 °F 59.0 °F 73% 30.14 in 10.0 mi SSE 8.1 mph - N/A   Clear
8:15 PM 68.0 °F 59.0 °F 73% 30.14 in 10.0 mi SSE 8.1 mph - N/A   Clear
8:35 PM 68.0 °F 59.0 °F 73% 30.14 in 10.0 mi South 8.1 mph - N/A   Clear
8:55 PM 68.0 °F 59.0 °F 73% 30.14 in 10.0 mi South 10.4 mph - N/A   Clear
9:15 PM 68.0 °F 57.2 °F 68% 30.13 in 10.0 mi South 9.2 mph - N/A   Clear
9:35 PM 66.2 °F 57.2 °F 73% 30.14 in 10.0 mi South 6.9 mph - N/A   Clear
9:55 PM 66.2 °F 57.2 °F 73% 30.14 in 10.0 mi South 8.1 mph - N/A   Clear
10:15 PM 66.2 °F 57.2 °F 73% 30.14 in 10.0 mi South 6.9 mph - N/A   Clear
10:35 PM 66.2 °F 57.2 °F 73% 30.14 in 10.0 mi SSW 9.2 mph - N/A   Clear
10:55 PM 66.2 °F 57.2 °F 73% 30.14 in 10.0 mi South 8.1 mph - N/A   Clear
11:15 PM 66.2 °F 57.2 °F 73% 30.14 in 10.0 mi South 10.4 mph - N/A   Clear
11:35 PM 66.2 °F 57.2 °F 73% 30.14 in 10.0 mi SSW 9.2 mph - N/A   Clear
11:55 PM 66.2 °F 57.2 °F 73% 30.14 in 10.0 mi South 9.2 mph - N/A   Clear